Fargo, ND

10:56 AM CST on February 19, 2017 (GMT -0600)
Hector International

Weather History for KFAR - September, 2012

Change the Weather History Date:

Monday, September 24, 2012

  Actual Average Record
Temperature  
Mean Temperature 61 °F 55 °F  
Max Temperature 83 °F 67 °F 87 °F (1990)
Min Temperature 38 °F 44 °F 25 °F (1951)
Degree Days  
Heating Degree Days 4 10  
Month to date heating degree days 170 150  
Since 1 July heating degree days 188 200  
Cooling Degree Days 0 1  
Month to date cooling degree days 45 42  
Year to date cooling degree days 790 547  
Growing Degree Days 10 (Base 50)    
Moisture  
Dew Point 31 °F    
Average Humidity 38    
Maximum Humidity 59    
Minimum Humidity 17    
Precipitation  
Precipitation 0.00 in 0.07 in 2.07 in (1973)
Month to date precipitation 0.12 2.11  
Year to date precipitation 11.34 18.17  
Snow  
Snow 0.00 in 0.00 in T in (1942)
Month to date snowfall 0.0 0.0  
Since 1 July snowfall 0.0 0.0  
Since 1 September snowfall 0.0 0.0  
Snow Depth 0.00 in    
Sea Level Pressure  
Sea Level Pressure 29.87 in    
Wind  
Wind Speed 12 mph (West)    
Max Wind Speed 23 mph    
Max Gust Speed 37 mph    
Visibility 10 miles    
Events      
T = Trace of Precipitation, MM = Missing Value Source: NWS Daily Summary

Daily Weather History Graph

Daily Weather History Graph

Search for Another Location

Airport or City:

Trip Planner

Search our weather history database for the weather conditions in past years. The results will help you decide how hot, cold, wet, or windy it might be!

Date:

Astronomy

Sep. 24, 2012 Rise Set
Actual Time 7:17 AM CDT 7:19 PM CDT
Civil Twilight 6:47 AM CDT 7:50 PM CDT
Nautical Twilight 6:11 AM CDT 8:25 PM CDT
Astronomical Twilight 5:34 AM CDT 9:01 PM CDT
Moon 4:23 PM CDT (9/24) 1:16 AM CDT (9/24)
Length of Visible Light 13h 03m
Length of Day
12h 02m
Waxing Gibbous, 71% of the Moon is Illuminated
Sep 24
Waxing Gibbous
Sep 29
Full
Oct 8
Last Quarter
Oct 15
New
Oct 21
First Quarter

Hourly Weather History & Observations

Time (CDT) Temp. Windchill Dew Point Humidity Pressure Visibility Wind Dir Wind Speed Gust Speed Precip Events Conditions
12:53 AM 42.1 °F 37.1 °F 25.0 °F 51% 30.07 in 10.0 mi South 8.1 mph - N/A   Clear
1:53 AM 42.1 °F 37.1 °F 24.1 °F 49% 30.05 in 10.0 mi South 8.1 mph - N/A   Clear
2:53 AM 39.0 °F 33.4 °F 25.0 °F 57% 30.03 in 10.0 mi SSW 8.1 mph - N/A   Clear
3:53 AM 39.0 °F 32.8 °F 26.1 °F 60% 30.00 in 10.0 mi SSW 9.2 mph - N/A   Clear
4:53 AM 39.0 °F 32.8 °F 26.1 °F 60% 29.97 in 10.0 mi South 9.2 mph - N/A   Clear
5:53 AM 39.0 °F 32.8 °F 26.1 °F 60% 29.95 in 10.0 mi SSW 9.2 mph - N/A   Clear
6:53 AM 41.0 °F 35.2 °F 26.1 °F 55% 29.93 in 10.0 mi SSW 9.2 mph - N/A   Clear
7:53 AM 43.0 °F 38.2 °F 27.0 °F 53% 29.90 in 10.0 mi SSW 8.1 mph - N/A   Clear
8:53 AM 50.0 °F - 28.0 °F 43% 29.88 in 10.0 mi SW 11.5 mph - N/A   Clear
9:53 AM 57.9 °F - 30.0 °F 35% 29.85 in 10.0 mi West 15.0 mph - N/A   Clear
10:53 AM 68.0 °F - 30.9 °F 25% 29.83 in 10.0 mi WSW 13.8 mph - N/A   Clear
11:53 AM 75.2 °F - 32.0 °F 21% 29.79 in 10.0 mi West 17.3 mph 23.0 mph N/A   Clear
12:53 PM 79.0 °F - 33.1 °F 19% 29.78 in 10.0 mi West 19.6 mph 26.5 mph N/A   Clear
1:53 PM 81.0 °F - 33.1 °F 18% 29.75 in 10.0 mi WNW 19.6 mph 26.5 mph N/A   Clear
2:53 PM 82.9 °F - 34.0 °F 17% 29.74 in 10.0 mi NNW 17.3 mph 27.6 mph N/A   Clear
3:53 PM 81.0 °F - 37.9 °F 21% 29.73 in 10.0 mi NNW 13.8 mph - N/A   Clear
4:53 PM 79.0 °F - 37.0 °F 22% 29.74 in 10.0 mi North 13.8 mph - N/A   Clear
5:53 PM 75.0 °F - 41.0 °F 29% 29.75 in 10.0 mi North 17.3 mph 24.2 mph N/A   Clear
6:53 PM 69.1 °F - 37.9 °F 32% 29.78 in 10.0 mi NNE 16.1 mph 20.7 mph N/A   Clear
7:53 PM 63.0 °F - 33.1 °F 33% 29.81 in 10.0 mi NNE 13.8 mph 23.0 mph N/A   Clear
8:53 PM 59.0 °F - 30.9 °F 35% 29.84 in 10.0 mi North 16.1 mph - N/A   Clear
9:53 PM 54.0 °F - 32.0 °F 43% 29.86 in 10.0 mi NNE 10.4 mph - N/A   Clear
10:53 PM 50.0 °F - 32.0 °F 50% 29.87 in 10.0 mi NNE 11.5 mph - N/A   Clear
11:53 PM 46.0 °F 43.9 °F 32.0 °F 58% 29.89 in 10.0 mi North 4.6 mph - N/A   Clear